Fallon NAS, NV

12:16 PM PDT on August 18, 2017 (GMT -0700)
Fallon Naval Air Station

Weather History for KNFL - November, 2011

Change the Weather History Date:

Sunday, November 13, 2011

  Actual Average Record
Temperature  
Mean Temperature 47 °F -  
Max Temperature 59 °F 55 °F 73 °F (1996)
Min Temperature 35 °F 25 °F 7 °F (1929)
Degree Days  
Heating Degree Days 18    
Moisture  
Dew Point 30 °F    
Average Humidity 57    
Maximum Humidity 92    
Minimum Humidity 29    
Precipitation  
Precipitation 0.02 in - - ()
Sea Level Pressure  
Sea Level Pressure 29.87 in    
Wind  
Wind Speed 5 mph (SSE)    
Max Wind Speed 8 mph    
Max Gust Speed -    
Visibility 10 miles    
Events Rain    
Averages and records for this station are not official NWS values.
T = Trace of Precipitation, MM = Missing Value Source: NWS Daily Summary

Daily Weather History Graph

Daily Weather History Graph

Search for Another Location

Airport or City:

Trip Planner

Search our weather history database for the weather conditions in past years. The results will help you decide how hot, cold, wet, or windy it might be!

Date:

Astronomy

Nov. 13, 2011 Rise Set
Actual Time 6:36 AM PST 4:41 PM PST
Civil Twilight 6:07 AM PST 5:10 PM PST
Nautical Twilight 5:35 AM PST 5:42 PM PST
Astronomical Twilight 5:03 AM PST 6:14 PM PST
Moon 6:55 PM PST (11/13) 9:12 AM PST (11/13)
Length of Visible Light 11h 02m
Length of Day
10h 05m
Waning Gibbous, 92% of the Moon is Illuminated
Nov 13
Waning Gibbous
Nov 18
Last Quarter
Nov 24
New
Dec 2
First Quarter
Dec 10
Full

Hourly Weather History & Observations

Time (PST) Temp. Windchill Dew Point Humidity Pressure Visibility Wind Dir Wind Speed Gust Speed Precip Events Conditions
12:56 AM 37.9 °F 34.4 °F 30.9 °F 76% 29.84 in 10.0 mi South 4.6 mph - N/A   Mostly Cloudy
1:56 AM 39.9 °F 35.8 °F 33.1 °F 77% 29.84 in 10.0 mi SSE 5.8 mph - 0.01 in Rain Light Rain
2:56 AM 39.9 °F 34.5 °F 36.0 °F 86% 29.83 in 10.0 mi SSE 8.1 mph - 0.01 in Rain Light Rain
3:56 AM 39.9 °F 37.8 °F 35.1 °F 83% 29.84 in 10.0 mi ESE 3.5 mph - 0.00 in   Overcast
4:56 AM 39.9 °F 37.8 °F 36.0 °F 86% 29.85 in 10.0 mi SW 3.5 mph - N/A   Overcast
5:56 AM 37.9 °F 33.5 °F 35.1 °F 89% 29.85 in 10.0 mi South 5.8 mph - N/A   Scattered Clouds
6:56 AM 35.1 °F 29.3 °F 33.1 °F 92% 29.87 in 10.0 mi South 6.9 mph - N/A   Clear
7:56 AM 41.0 °F 39.0 °F 37.0 °F 86% 29.90 in 10.0 mi SSE 3.5 mph - N/A   Clear
8:56 AM 48.9 °F - 37.0 °F 64% 29.90 in 10.0 mi West 6.9 mph - N/A   Clear
9:56 AM 52.0 °F - 37.9 °F 59% 29.91 in 10.0 mi West 4.6 mph - N/A   Clear
10:56 AM 55.9 °F - 36.0 °F 47% 29.91 in 10.0 mi ENE 4.6 mph - N/A   Clear
11:03 AM 55.4 °F - 35.6 °F 47% 29.99 in 10.0 mi NNE 3.5 mph - N/A   Mostly Cloudy
11:56 AM 55.9 °F - 33.1 °F 42% 29.90 in 10.0 mi Variable 4.6 mph - N/A   Mostly Cloudy
12:56 PM 55.9 °F - 30.0 °F 37% 29.89 in 10.0 mi Calm Calm - N/A   Mostly Cloudy
1:56 PM 57.9 °F - 28.0 °F 32% 29.88 in 10.0 mi Variable 4.6 mph - N/A   Mostly Cloudy
2:56 PM 59.0 °F - 27.0 °F 29% 29.88 in 10.0 mi Variable 3.5 mph - N/A   Mostly Cloudy
3:56 PM 57.0 °F - 28.0 °F 33% 29.87 in 10.0 mi ENE 4.6 mph - N/A   Overcast
4:56 PM 50.0 °F - 28.9 °F 44% 29.87 in 10.0 mi East 4.6 mph - N/A   Overcast
5:56 PM 45.0 °F 41.2 °F 27.0 °F 49% 29.86 in 10.0 mi SE 6.9 mph - N/A   Overcast
6:56 PM 45.0 °F 43.5 °F 21.9 °F 40% 29.87 in 10.0 mi ESE 3.5 mph - N/A   Clear
7:56 PM 41.0 °F 35.8 °F 24.1 °F 51% 29.86 in 10.0 mi SE 8.1 mph - N/A   Clear
8:56 PM 45.0 °F 40.6 °F 23.0 °F 42% 29.86 in 10.0 mi SSE 8.1 mph - N/A   Clear
9:56 PM 43.0 °F 38.8 °F 21.9 °F 43% 29.86 in 10.0 mi South 6.9 mph - N/A   Partly Cloudy
10:56 PM 44.1 °F 41.5 °F 21.9 °F 42% 29.85 in 10.0 mi SSE 4.6 mph - N/A   Mostly Cloudy
11:56 PM 43.0 °F 39.5 °F 23.0 °F 45% 29.84 in 10.0 mi SSE 5.8 mph - N/A   Overcast